Regional Weather Roundup
Issued by NWS Little Rock, AR

Home | Current Version | Previous Version | Graphics & Text | Print | Product List | Glossary On
Versions: 1 2 3 4 5 6 7 8 9 10 11 12 13 14 15 16 17 18 19 20 21 22 23 24 25 26 27 28 29 30 31 32 33 34 35 36 37 38 39 40 41 42 43 44 45 46 47 48 49 50
000
ASUS44 KLZK 311105
RWRLZK

WEATHER ROUNDUP FOR ARKANSAS
NATIONAL WEATHER SERVICE LITTLE ROCK AR
500 AM CST SAT JAN 31 2015

NOTE: "FAIR" INDICATES FEW OR NO CLOUDS BELOW 12,000 FEET WITH NO
SIGNIFICANT WEATHER AND/OR OBSTRUCTIONS TO VISIBILITY.

ARZ001-003-010-029-311200-
NORTHWEST ARKANSAS

CITY           SKY/WX    TMP DP  RH WIND       PRES   REMARKS
FAYETTEVILLE   CLOUDY    40  26  57 W3        30.26F
FORT SMITH     CLOUDY    41  29  62 E10       30.29F
HARRISON       CLOUDY    37  24  59 E5        30.29F
BENTONVILLE    CLOUDY    41  25  52 SE5       30.26S
ROGERS         CLOUDY    40  27  59 S5        30.27S
SILOAM SPGS    CLOUDY    39  23  52 E3        30.27R
HIGHFILL       CLOUDY    40  26  57 CALM      30.25S
$$

ARZ004-005-016-311200-
NORTH CENTRAL ARKANSAS

CITY           SKY/WX    TMP DP  RH WIND       PRES   REMARKS
BATESVILLE     CLOUDY    36  27  69 SE3       30.35F
FLIPPIN        CLOUDY    36  23  60 E3        30.32S
MTN HOME       CLOUDY    36  25  64 E5        30.31F
$$

ARZ040-041-311200-
WEST CENTRAL ARKANSAS

CITY           SKY/WX    TMP DP  RH WIND       PRES   REMARKS
MENA           CLOUDY    43  30  61 E6        30.30R
MOUNT IDA      CLOUDY    40  27  59 CALM      30.29S
$$

ARZ009-017-025-026-028-311200-
NORTHEAST ARKANSAS

CITY           SKY/WX    TMP DP  RH WIND       PRES   REMARKS
CORNING        CLOUDY    32  30  93 NE5       30.38F FOG     WCI  27
JONESBORO      CLOUDY    33  29  85 CALM      30.38S
NEWPORT        CLOUDY    35  33  92 N3        30.38F
WALNUT RIDGE   CLOUDY    34  28  80 CALM      30.38S
BLYTHEVILLE    CLOUDY    34  28  79 CALM      30.38S
$$

ARZ022-023-033-042-044-311200-
CENTRAL ARKANSAS

CITY           SKY/WX    TMP DP  RH WIND       PRES   REMARKS
LITTLE ROCK    CLOUDY    40  28  62 E7        30.35F
N LITTLE ROCK    N/A     38  31  77 E6        30.35F
JACKSONVILLE   MOCLDY    35  31  82 CALM      30.35F
SEARCY         MOCLDY    37  29  72 NE3       30.38F
HOT SPRINGS    CLOUDY    40  27  59 SE3       30.34R
RUSSELLVILLE   CLOUDY    40  28  62 E3        30.33S
CLINTON        FAIR      36  30  80 CALM      30.37S
$$

ARZ036-311200-
EAST ARKANSAS

CITY           SKY/WX    TMP DP  RH WIND       PRES   REMARKS
WEST MEMPHIS   CLOUDY    36  29  75 SE3       30.36F
$$

ARZ050-053-066-070-073-311200-
SOUTHWEST ARKANSAS

CITY           SKY/WX    TMP DP  RH WIND       PRES   REMARKS
ARKADELPHIA    CLOUDY    39  30  70 NE5       30.35S
CAMDEN         CLOUDY    36  32  87 CALM      30.34F
TEXARKANA      CLOUDY    41  29  62 E6        30.30F
EL DORADO      MOCLDY    36  30  79 NE5       30.33R
DE QUEEN       CLOUDY    41  29  62 E6        30.30S
$$

ARZ056-057-069-311200-
SOUTHEAST ARKANSAS

CITY           SKY/WX    TMP DP  RH WIND       PRES   REMARKS
PINE BLUFF     MOCLDY    38  29  70 CALM      30.36F
STUTTGART      MOCLDY    37  27  65 E8        30.35F
MONTICELLO     MOCLDY    35  28  75 CALM      30.34F

$$




USA.gov is the U.S. government's official web portal to all federal, state and local government web resources and services.